Prescott, AZ

8:22 AM MST on December 11, 2019 (GMT -0700)
Love

Weather History for KPRC - October, 2019

Change the Weather History Date:

Tuesday, October 8, 2019

  Actual Average Record
Temperature  
Mean Temperature 62 °F 59 °F  
Max Temperature 80 °F 74 °F 91 °F (1996)
Min Temperature 45 °F 44 °F 31 °F (1970)
Degree Days  
Heating Degree Days 2    
Month to date heating degree days 33  
Since 1 July heating degree days 60  
Cooling Degree Days 0    
Month to date cooling degree days 0  
Year to date cooling degree days 1130  
Growing Degree Days 12 (Base 50)    
Moisture  
Dew Point 26 °F    
Average Humidity 30    
Maximum Humidity 61    
Minimum Humidity 10    
Precipitation  
Precipitation 0.00 in 0.02 in 0.59 in (1960)
Month to date precipitation 0.00 0.28  
Year to date precipitation 10.29 11.45  
Sea Level Pressure  
Sea Level Pressure 29.84 in    
Wind  
Wind Speed 5 mph ()    
Max Wind Speed 16 mph    
Max Gust Speed 21 mph    
Visibility 10.0 miles    
Events      
T = Trace of Precipitation, MM = Missing Value Source: Averaged Metar Reports

Daily Weather History Graph

Daily Weather History Graph

Search for Another Location

Airport or City:

Astronomy

Oct. 08, 2019 Rise Set
Actual Time 6:29 AM MST 6:04 PM MST
Civil Twilight 6:04 AM MST 6:29 PM MST
Nautical Twilight 5:35 AM MST 6:58 PM MST
Astronomical Twilight 5:05 AM MST 7:27 PM MST
Moon 3:50 PM MST (10/8) 1:38 AM MST (10/8)
Length of Visible Light 12h 25m
Length of Day
11h 34m
Waxing Gibbous, 78% of the Moon is Illuminated
Oct 8
Waxing Gibbous
Oct 13
Full
Oct 21
Last Quarter
Oct 27
New
Nov 4
First Quarter

Hourly Weather History & Observations

Time (MST) Temp. Windchill Dew Point Humidity Pressure Visibility Wind Dir Wind Speed Gust Speed Precip Events Conditions
12:53 AM 52.0 °F - 36.0 °F 54% 29.87 in 10.0 mi SSW 3.5 mph - N/A   Clear
1:53 AM 52.0 °F - 36.0 °F 54% 29.87 in 10.0 mi SSW 9.2 mph - N/A   Clear
2:53 AM 50.0 °F - 36.0 °F 59% 29.86 in 10.0 mi South 4.6 mph - N/A   Clear
3:53 AM 48.9 °F - 35.1 °F 59% 29.85 in 10.0 mi South 9.2 mph - N/A   Clear
4:53 AM 48.9 °F - 32.0 °F 52% 29.85 in 10.0 mi WSW 4.6 mph - N/A   Clear
5:53 AM 46.0 °F 43.9 °F 32.0 °F 58% 29.88 in 10.0 mi SW 4.6 mph - N/A   Clear
6:53 AM 46.9 °F - 30.9 °F 54% 29.90 in 10.0 mi Calm Calm - N/A   Clear
7:53 AM 54.0 °F - 32.0 °F 43% 29.91 in 9.0 mi Calm Calm - N/A   Clear
8:53 AM 62.1 °F - 32.0 °F 32% 29.90 in 10.0 mi Calm Calm - N/A   Clear
9:53 AM 70.0 °F - 30.0 °F 23% 29.89 in 10.0 mi Calm Calm - N/A   Clear
10:53 AM 73.9 °F - 28.0 °F 18% 29.86 in 10.0 mi Variable 3.5 mph - N/A   Clear
11:53 AM 75.9 °F - 28.0 °F 17% 29.84 in 10.0 mi North 5.8 mph - N/A   Clear
12:53 PM 78.1 °F - 24.1 °F 14% 29.82 in 10.0 mi ESE 10.4 mph - N/A   Clear
1:53 PM 78.1 °F - 19.9 °F 11% 29.79 in 10.0 mi Variable 3.5 mph - N/A   Clear
2:53 PM 78.1 °F - 17.1 °F 10% 29.79 in 10.0 mi Variable 5.8 mph - N/A   Clear
3:53 PM 79.0 °F - 18.0 °F 10% 29.78 in 10.0 mi West 13.8 mph - N/A   Clear
4:53 PM 77.0 °F - 18.0 °F 11% 29.79 in 10.0 mi WSW 11.5 mph - N/A   Clear
5:53 PM 72.0 °F - 18.0 °F 13% 29.81 in 10.0 mi WSW 9.2 mph - N/A   Clear
6:53 PM 66.9 °F - 18.0 °F 15% 29.83 in 10.0 mi SSW 6.9 mph - N/A   Clear
7:53 PM 62.1 °F - 19.9 °F 20% 29.84 in 10.0 mi SSW 9.2 mph - N/A   Clear
8:53 PM 61.0 °F - 19.9 °F 21% 29.82 in 10.0 mi SSW 8.1 mph - N/A   Clear
9:53 PM 57.9 °F - 19.9 °F 23% 29.81 in 10.0 mi South 5.8 mph - N/A   Clear
10:53 PM 57.0 °F - 21.0 °F 25% 29.79 in 10.0 mi South 8.1 mph - N/A   Clear
11:53 PM 54.0 °F - 25.0 °F 33% 29.78 in 10.0 mi South 8.1 mph - N/A   Clear